This is the latest recevied weather packets stored in our database for station/object EA7HQL-10. If no packets are shown the sender has not sent any weather packets the latest 10 day(s).
| Time | Temp. | Humidity | Pressure | Rain* | Wind** | Luminosity | Snow |
|---|---|---|---|---|---|---|---|
| 1777969999 | 20° C | 50% | 1011.8 hPa | 0 mm | - | - | - |
| 1777969719 | 20° C | 50% | 1011.8 hPa | 0 mm | - | - | - |
| 1777969444 | 19.44° C | 51% | 1011.8 hPa | 0 mm | - | - | - |
| 1777969184 | 18.89° C | 52% | 1011.8 hPa | 0 mm | - | - | - |
| 1777968944 | 18.89° C | 52% | 1011.8 hPa | 0 mm | - | - | - |
| 1777968679 | 18.89° C | 51% | 1011.8 hPa | 0 mm | - | - | - |
| 1777968399 | 18.89° C | 51% | 1011.7 hPa | 0 mm | - | - | - |
| 1777968114 | 18.89° C | 51% | 1011.8 hPa | 0 mm | - | - | - |
| 1777967844 | 18.89° C | 54% | 1011.8 hPa | 0 mm | - | - | - |
| 1777967544 | 18.89° C | 53% | 1011.7 hPa | 0 mm | - | - | - |
| 1777967279 | 18.33° C | 54% | 1011.7 hPa | 0 mm | - | - | - |
| 1777967024 | 18.89° C | 53% | 1011.8 hPa | 0 mm | - | - | - |
| 1777966754 | 18.33° C | 53% | 1011.7 hPa | 0 mm | - | - | - |
| 1777966484 | 17.78° C | 55% | 1011.9 hPa | 0 mm | - | - | - |
| 1777966194 | 17.78° C | 54% | 1011.7 hPa | 0 mm | - | - | - |
| 1777965904 | 17.78° C | 55% | 1011.8 hPa | 0 mm | - | - | - |
| 1777965614 | 17.22° C | 57% | 1011.7 hPa | 0 mm | - | - | - |
| 1777965374 | 17.22° C | 58% | 1011.7 hPa | 0 mm | - | - | - |
| 1777965129 | 17.22° C | 58% | 1011.9 hPa | 0 mm | - | - | - |
| 1777964864 | 17.22° C | 58% | 1011.8 hPa | 0 mm | - | - | - |
| 1777964584 | 17.22° C | 58% | 1011.9 hPa | 0 mm | - | - | - |
| 1777964319 | 17.22° C | 58% | 1011.8 hPa | 0 mm | - | - | - |
| 1777964019 | 17.22° C | 58% | 1011.8 hPa | 0 mm | - | - | - |
| 1777963779 | 17.22° C | 58% | 1011.8 hPa | 0 mm | - | - | - |
| 1777963484 | 16.67° C | 59% | 1011.9 hPa | 0 mm | - | - | - |
* Rain latest hour (hover to see other rain measurements)
** Current wind speed in m/s (hover to see current wind gust speed)